GW2949 Weather Reports


time (UTC)temp
C
wind
direction
speed
KPH
gust
KPH
rain 1hr
cm
rain 24hr
cm
rain mn
cm
humidity
%
barometer
mb
20260506171118 8 195 8.0 12.9 0.00 0.00 0.00 54 1014.0
20260506170118 8 119 3.2 6.4 0.00 0.00 0.00 51 1014.0
20260506165138 9 157 3.2 8.0 0.00 0.00 0.00 51 1014.0
20260506164118 9 118 3.2 8.0 0.00 0.00 0.00 49 1014.0
20260506163117 8 165 4.8 12.9 0.00 0.00 0.00 50 1013.9
20260506162118 8 180 4.8 14.5 0.00 0.00 0.00 52 1013.9
20260506161118 8 177 4.8 9.7 0.00 0.00 0.00 55 1013.9
20260506160139 8 192 4.8 14.5 0.00 0.00 0.00 53 1013.9
20260506155118 8 179 6.4 14.5 0.00 0.00 0.00 55 1013.9
20260506154138 7 187 6.4 12.9 0.00 0.00 0.00 57 1014.0
20260506153118 8 161 4.8 11.3 0.00 0.00 0.00 55 1014.1
20260506152139 8 158 6.4 14.5 0.00 0.00 0.00 54 1014.2
20260506151117 8 184 8.0 17.7 0.00 0.00 0.00 53 1014.2
20260506150118 8 193 8.0 19.3 0.00 0.00 0.00 54 1014.1
20260506145118 8 199 12.9 19.3 0.00 0.00 0.00 50 1014.1
20260506144118 9 196 6.4 16.1 0.00 0.00 0.00 48 1014.0
20260506143117 8 190 4.8 9.7 0.00 0.00 0.00 49 1013.9
20260506142118 9 206 6.4 16.1 0.00 0.00 0.00 49 1014.0
20260506141118 9 188 4.8 12.9 0.00 0.00 0.00 51 1014.0
20260506140119 9 104 6.4 16.1 0.00 0.00 0.00 49 1014.1
20260506135118 9 137 4.8 9.7 0.00 0.00 0.00 47 1014.1
20260506134119 9 170 4.8 9.7 0.00 0.00 0.00 51 1014.0
20260506133118 8 184 4.8 12.9 0.00 0.00 0.00 49 1014.0
20260506132139 8 177 8.0 24.1 0.00 0.00 0.00 50 1013.8
20260506131118 9 204 8.0 20.9 0.00 0.00 0.00 51 1014.0
20260506130117 9 190 6.4 12.9 0.00 0.00 0.00 51 1014.0
20260506125137 7 202 17.7 37.0 0.00 0.00 0.00 62 1014.0
20260506124118 7 150 6.4 12.9 0.00 0.00 0.00 62 1014.0
20260506123118 7 199 14.5 24.1 0.00 0.00 0.00 60 1014.1
20260506122118 7 194 9.7 19.3 0.00 0.00 0.00 66 1014.1
20260506121118 7 206 14.5 24.1 0.00 0.00 0.00 62 1013.9
20260506120119 7 197 16.1 25.7 0.00 0.00 0.00 68 1013.9
20260506115137 7 214 8.0 14.5 0.00 0.00 0.00 68 1014.1
20260506114118 7 195 12.9 20.9 0.00 0.00 0.00 65 1014.1
20260506113117 7 188 11.3 20.9 0.00 0.00 0.00 58 1013.8
20260506112118 8 197 9.7 19.3 0.00 0.00 0.00 57 1013.9
20260506111137 7 189 11.3 20.9 0.00 0.00 0.00 61 1013.9
20260506110118 7 197 19.3 27.4 0.00 0.00 0.00 65 1013.8
20260506105117 7 202 12.9 20.9 0.00 0.00 0.00 62 1013.9
20260506104119 8 199 9.7 16.1 0.00 0.00 0.00 57 1013.8
20260506103118 8 197 11.3 16.1 0.00 0.00 0.00 56 1013.8
20260506102118 8 199 8.0 14.5 0.00 0.00 0.00 56 1013.8
20260506101117 10 21 3.2 4.8 0.00 0.00 0.00 52 1013.8
20260506100118 11 131 4.8 11.3 0.00 0.00 0.00 39 1013.6
20260506095117 9 99 3.2 4.8 0.00 0.00 0.00 45 1013.6
20260506094158 10 196 3.2 9.7 0.00 0.00 0.00 41 1013.5
20260506093118 10 74 3.2 11.3 0.00 0.00 0.00 32 1013.5
20260506092118 10 30 1.6 3.2 0.00 0.00 0.00 30 1013.4
20260506091117 10 346 4.8 8.0 0.00 0.00 0.00 32 1013.4
20260506090117 10 148 3.2 6.4 0.00 0.00 0.00 35 1013.4
20260506085157 8 313 4.8 9.7 0.00 0.00 0.00 44 1013.1
20260506084139 9 131 3.2 6.4 0.00 0.00 0.00 39 1013.0
20260506083118 8 329 3.2 8.0 0.00 0.00 0.00 43 1013.1
20260506082139 8 67 3.2 6.4 0.00 0.00 0.00 43 1012.9
20260506081137 8 313 4.8 9.7 0.00 0.00 0.00 45 1013.0
20260506080158 8 27 4.8 11.3 0.00 0.00 0.00 47 1012.8
20260506073117 8 298 3.2 9.7 0.00 0.00 0.00 47 1012.6
20260506072118 8 131 4.8 9.7 0.00 0.00 0.00 48 1012.6
20260506071117 8 77 1.6 4.8 0.00 0.00 0.00 48 1012.6
20260506070118 7 305 4.8 9.7 0.00 0.00 0.00 51 1012.6
20260506062118 6 26 3.2 8.0 0.00 0.00 0.00 58 1012.4
20260506061118 6 252 3.2 9.7 0.00 0.00 0.00 58 1012.4
20260506060118 6 340 3.2 6.4 0.00 0.00 0.00 60 1012.3
20260506051118 5 316 4.8 9.7 0.00 0.00 0.00 68 1011.8
20260506050118 4 113 4.8 8.0 0.00 0.00 0.00 69 1011.7
20260506044119 2 330 6.4 9.7 0.00 0.00 0.00 78 1011.2
20260506043117 2 351 4.8 9.7 0.00 0.00 0.00 77 1011.2
20260506042118 2 346 4.8 11.3 0.00 0.00 0.00 79 1011.0
20260506041117 2 91 3.2 9.7 0.00 0.00 0.00 79 1011.0
20260506040119 2 6 3.2 6.4 0.00 0.00 0.00 79 1010.9
20260506035117 2 345 3.2 9.7 0.00 0.00 0.00 79 1010.9
20260506034140 2 89 3.2 8.0 0.00 0.00 0.00 78 1010.7
20260506033119 2 109 3.2 6.4 0.00 0.00 0.00 79 1010.6
20260506032138 2 71 3.2 4.8 0.00 0.00 0.00 78 1010.6
20260506031117 2 78 3.2 6.4 0.00 0.00 0.00 78 1010.6
20260506030119 2 110 3.2 6.4 0.00 0.00 0.00 78 1010.5
20260506025118 2 117 3.2 8.0 0.00 0.00 0.00 78 1010.4
20260506024119 2 73 3.2 4.8 0.00 0.00 0.00 78 1010.4
20260506023118 2 319 3.2 6.4 0.00 0.00 0.00 78 1010.3
20260506022118 2 349 3.2 6.4 0.00 0.00 0.00 78 1010.1
20260506021118 2 326 3.2 8.0 0.00 0.00 0.00 78 1010.2
20260506020139 2 308 3.2 6.4 0.00 0.00 0.00 79 1010.1
20260506015118 2 290 4.8 9.7 0.00 0.00 0.00 79 1010.1
20260506014118 2 302 3.2 8.0 0.00 0.00 0.00 79 1010.0
20260506013118 2 251 3.2 9.7 0.00 0.00 0.00 78 1010.0
20260506012138 2 301 4.8 8.0 0.00 0.00 0.00 78 1010.0
20260506011118 2 317 3.2 6.4 0.00 0.00 0.00 77 1009.9
20260506010117 2 318 3.2 8.0 0.00 0.00 0.00 76 1009.9
20260506005139 3 331 4.8 9.7 0.00 0.00 0.00 75 1009.3
20260506004118 3 222 3.2 6.4 0.00 0.00 0.00 76 1009.3
20260506003118 3 20 3.2 9.7 0.00 0.00 0.00 75 1009.3
20260506002239 3 21 3.2 6.4 0.00 0.00 0.00 74 1009.2
20260506001138 3 255 3.2 9.7 0.00 0.00 0.00 74 1009.2
20260506000139 3 187 3.2 11.3 0.00 0.00 0.00 73 1009.2
20260505235118 3 97 3.2 8.0 0.00 0.00 0.00 73 1009.1
20260505234118 3 357 4.8 11.3 0.00 0.00 0.00 72 1009.1
20260505233138 3 289 4.8 11.3 0.00 0.00 0.00 72 1008.9
20260505232158 3 349 4.8 17.7 0.00 0.00 0.00 71 1008.9
20260505231138 3 12 3.2 9.7 0.00 0.00 0.00 73 1008.7
20260505230118 3 331 4.8 9.7 0.00 0.00 0.00 71 1008.8
20260505225117 3 338 4.8 8.0 0.00 0.00 0.00 71 1008.7
20260505224118 4 344 8.0 12.9 0.00 0.00 0.00 71 1008.7
20260505223118 4 327 4.8 12.9 0.00 0.00 0.00 70 1008.7
20260505222119 4 59 4.8 12.9 0.00 0.00 0.00 70 1008.7
20260505221118 4 290 4.8 9.7 0.00 0.00 0.00 68 1008.6
20260505220118 4 330 4.8 12.9 0.00 0.00 0.00 68 1008.5
20260505215118 4 24 4.8 11.3 0.00 0.00 0.00 68 1008.5
20260505214119 5 149 4.8 8.0 0.00 0.00 0.00 67 1008.4
20260505213117 5 100 4.8 12.9 0.00 0.00 0.00 65 1008.4
20260505212119 5 41 3.2 8.0 0.00 0.00 0.00 65 1008.3
20260505211117 5 148 4.8 14.5 0.00 0.00 0.00 63 1008.2
20260505210118 5 256 6.4 16.1 0.00 0.00 0.00 64 1008.2
20260505205157 6 351 6.4 12.9 0.00 0.00 0.00 57 1007.4
20260505204119 6 339 6.4 14.5 0.00 0.00 0.00 58 1007.3
20260505203118 6 342 4.8 11.3 0.00 0.00 0.00 55 1007.4
20260505202119 6 74 3.2 8.0 0.00 0.00 0.00 54 1007.3
20260505201118 6 4 4.8 9.7 0.00 0.00 0.00 54 1007.2
20260505200139 6 104 4.8 12.9 0.00 0.00 0.00 50 1007.1
20260505195138 7 122 4.8 9.7 0.00 0.00 0.00 47 1007.0
20260505194119 7 143 4.8 12.9 0.00 0.00 0.00 48 1006.8
20260505193158 7 72 4.8 11.3 0.00 0.00 0.00 47 1007.0
20260505192118 7 81 6.4 11.3 0.00 0.00 0.00 48 1006.8
20260505191118 7 103 4.8 9.7 0.00 0.00 0.00 46 1006.8
20260505190118 7 111 4.8 11.3 0.00 0.00 0.00 48 1006.6
20260505185118 7 19 6.4 14.5 0.00 0.00 0.00 51 1006.5
20260505184118 7 133 6.4 12.9 0.00 0.00 0.00 44 1006.3
20260505183117 7 111 6.4 9.7 0.00 0.00 0.00 42 1006.4
20260505182139 8 21 6.4 14.5 0.00 0.00 0.00 43 1006.3
20260505181118 8 91 4.8 9.7 0.00 0.00 0.00 43 1006.2
20260505180119 8 53 8.0 16.1 0.00 0.00 0.00 44 1006.2
20260505175117 8 168 6.4 14.5 0.00 0.00 0.00 45 1006.1
20260505174118 8 118 4.8 8.0 0.00 0.00 0.00 42 1006.1
20260505173118 8 150 6.4 16.1 0.00 0.00 0.00 43 1006.1
20260505172119 8 102 8.0 20.9 0.00 0.00 0.00 40 1006.0